20050105,000026,88604,32.909736,-117.392852,1.0,15.823,33.131,41.635,286.06,0.0,1.237,15.455,15.428, NaN,24.350,   NaN,11.94,1012.65,74.54,11.92,325.8,322.5,3.1,3.4,291.7,287.8,2.8,3.1,NaN, NaN,19.7,263.8,265.1,1104883227,1104883227,1,0.6,000027,000027,328.0,32.909620,-117.392787,0.35,NaN,NaN,15.827, NaN,NaN,NaN, NaN, NaN
20050105,000055,88634,32.909788,-117.392860,1.1,15.825,33.130,41.635,924.68,0.0,1.199,15.459,15.433, NaN,24.349,   NaN,11.80,1012.65,74.10,11.84,321.6,318.9,3.1,3.3,284.8,281.8,3.0,3.2,NaN, NaN,19.8,58.5,236.3,1104883257,1104883257,1,0.0,000056,000057,320.0,32.909678,-117.392767,0.38,NaN,NaN,15.829, NaN,NaN,NaN, NaN, NaN
20050105,000126,88664,32.909850,-117.392847,1.0,15.828,33.129,41.637,1176.92,0.0,1.199,15.460,15.433, NaN,24.347,   NaN,11.85,1012.66,73.98,11.88,329.0,326.8,2.7,2.8,284.3,281.6,2.8,2.9,NaN, NaN,19.1,202.4,230.1,1104883287,1104883287,1,0.3,000086,000087,309.8,32.909736,-117.392740,0.37,NaN,NaN,15.832, NaN,NaN,NaN, NaN, NaN
20050105,000155,88693,32.909845,-117.392843,1.0,15.828,33.130,41.637,1183.10,0.0,1.218,15.460,15.433, NaN,24.348,   NaN,11.91,1012.67,73.66,11.95,342.4,342.5,2.5,2.6,290.2,290.1,2.5,2.7,NaN, NaN,18.8,27.5,220.5,1104883317,1104883316,1,0.3,000116,000116,299.3,32.909763,-117.392717,0.38,NaN,NaN,15.832, NaN,NaN,NaN, NaN, NaN
20050105,000226,88725,32.909846,-117.392817,1.1,15.828,33.129,41.637,1177.03,0.0,1.199,15.457,15.430, NaN,24.347,   NaN,11.96,1012.66,73.44,11.99,355.2,360.0,2.8,2.9,293.8,298.5,2.9,3.0,NaN, NaN,19.3,159.2,183.9,1104883347,1104883347,1,0.7,000147,000147,292.3,32.909771,-117.392677,0.31,NaN,NaN,15.832, NaN,NaN,NaN, NaN, NaN
20050105,000256,88755,32.909835,-117.392780,1.1,15.830,33.130,41.640,1172.21,0.0,1.199,15.457,15.429, NaN,24.348,   NaN,11.95,1012.65,73.33,12.00,6.3,9.9,2.8,3.1,301.4,304.1,2.9,3.2,NaN, NaN,17.6,177.4,159.7,1104883377,1104883377,1,0.5,000176,000177,291.0,32.909760,-117.392640,0.25,NaN,NaN,15.834, NaN,NaN,NaN, NaN, NaN
20050105,000326,88784,32.909818,-117.392737,1.1,15.832,33.128,41.639,1160.81,0.0,1.255,15.457,15.429, NaN,24.346,   NaN,12.03,1012.66,73.60,12.10,2.8,3.1,2.7,3.0,298.9,298.4,2.9,3.2,NaN, NaN,18.7,28.8,55.9,1104883408,1104883407,1,0.5,000207,000207,298.6,32.909730,-117.392615,0.29,NaN,NaN,15.836, NaN,NaN,NaN, NaN, NaN
20050105,000356,88814,32.909805,-117.392732,1.0,15.833,33.128,41.640,1148.57,0.0,1.255,15.459,15.433, NaN,24.345,   NaN,12.02,1012.70,73.26,12.07,345.3,345.7,3.1,3.2,286.7,286.5,3.2,3.3,NaN, NaN,16.1,165.7,223.7,1104883438,1104883438,1,0.2,000237,000238,310.3,32.909700,-117.392623,0.30,NaN,NaN,15.837, NaN,NaN,NaN, NaN, NaN
20050105,000426,88844,32.909830,-117.392732,1.0,15.833,33.129,41.643,1126.09,0.0,1.255,15.461,15.435, NaN,24.347,   NaN,11.97,1012.68,72.93,12.01,331.6,330.3,3.3,3.4,282.6,280.9,3.4,3.4,NaN, NaN,18.2,38.0,40.7,1104883467,1104883467,1,0.8,000267,000267,319.4,32.909711,-117.392638,0.39,NaN,NaN,15.837, NaN,NaN,NaN, NaN, NaN
20050105,000455,88873,32.909851,-117.392747,1.1,15.832,33.130,41.643,1121.31,0.0,1.274,15.460,15.434, NaN,24.347,   NaN,11.89,1012.71,72.62,11.95,321.9,320.8,3.4,3.6,281.0,279.6,3.3,3.5,NaN, NaN,17.6,31.9,2.0,1104883497,1104883497,1,0.5,000296,000297,322.3,32.909733,-117.392658,0.35,NaN,NaN,15.836, NaN,NaN,NaN, NaN, NaN
20050105,000526,88905,32.909886,-117.392747,1.0,15.832,33.131,41.644,1106.00,0.0,1.255,15.460,15.434, NaN,24.348,   NaN,11.80,1012.69,72.29,11.91,320.4,318.7,3.2,3.3,282.5,280.3,3.0,3.1,NaN, NaN,18.8,241.8,266.9,1104883528,1104883528,1,0.4,000327,000328,318.3,32.909771,-117.392655,0.40,NaN,NaN,15.836, NaN,NaN,NaN, NaN, NaN
20050105,000556,88934,32.909935,-117.392757,1.0,15.833,33.130,41.644,1096.87,0.0,1.255,15.461,15.434, NaN,24.347,   NaN,11.81,1012.67,72.24,11.92,323.1,320.8,3.1,3.3,282.6,280.0,3.0,3.2,NaN, NaN,18.1,25.9,13.6,1104883557,1104883557,1,0.7,000357,000357,312.0,32.909826,-117.392652,0.39,NaN,NaN,15.837, NaN,NaN,NaN, NaN, NaN
20050105,000626,88964,32.909956,-117.392778,1.0,15.833,33.134,41.648,1090.13,0.0,1.237,15.460,15.434, NaN,24.350,   NaN,11.82,1012.68,72.09,11.99,323.2,319.5,3.5,3.7,273.5,269.8,3.5,3.7,NaN, NaN,17.3,207.9,226.8,1104883588,1104883587,1,0.7,000387,000387,305.7,32.909865,-117.392658,0.38,NaN,NaN,15.837, NaN,NaN,NaN, NaN, NaN
20050105,000655,88994,32.909981,-117.392770,1.0,15.833,33.132,41.646,1087.75,0.0,1.255,15.460,15.434, NaN,24.349,   NaN,11.77,1012.69,71.71,11.96,324.5,320.9,3.5,3.7,267.8,264.3,3.6,3.8,NaN, NaN,18.7,43.3,36.6,1104883617,1104883617,1,0.0,000416,000417,302.0,32.909890,-117.392647,0.26,NaN,NaN,15.837, NaN,NaN,NaN, NaN, NaN
20050105,000725,89023,32.910001,-117.392773,1.0,15.833,33.133,41.647,1084.74,0.0,1.237,15.458,15.434, NaN,24.349,   NaN,11.81,1012.71,71.78,11.97,327.1,323.6,3.2,3.5,267.4,264.0,3.4,3.7,NaN, NaN,16.6,49.2,41.6,1104883647,1104883647,1,0.9,000446,000447,300.7,32.909910,-117.392640,0.44,NaN,NaN,15.837, NaN,NaN,NaN, NaN, NaN
20050105,000756,89055,32.910005,-117.392768,1.0,15.834,33.134,41.649,1071.95,0.0,1.274,15.461,15.434, NaN,24.350,   NaN,11.94,1012.71,72.05,12.09,333.5,332.6,3.2,3.4,273.9,273.0,3.3,3.4,NaN, NaN,16.7,3.4,211.4,1104883677,1104883677,1,0.2,000477,000477,303.2,32.909903,-117.392643,0.36,NaN,NaN,15.838, NaN,NaN,NaN, NaN, NaN
20050105,000826,89085,32.910018,-117.392785,0.9,15.835,33.134,41.650,1061.18,0.0,1.237,15.461,15.434, NaN,24.350,   NaN,11.94,1012.71,71.62,12.06,337.8,340.6,3.1,3.2,279.8,282.4,3.1,3.2,NaN, NaN,17.2,4.3,241.4,1104883708,1104883708,1,0.3,000507,000508,310.2,32.909910,-117.392680,0.34,NaN,NaN,15.839, NaN,NaN,NaN, NaN, NaN
20050105,000856,89114,32.910038,-117.392822,1.0,15.837,33.133,41.650,1043.30,0.0,1.293,15.464,15.436, NaN,24.349,   NaN,11.98,1012.72,71.69,12.04,338.6,339.4,3.1,3.2,284.3,285.2,3.1,3.2,NaN, NaN,16.4,31.1,271.0,1104883737,1104883737,1,0.7,000537,000537,317.7,32.909930,-117.392733,0.21,NaN,NaN,15.841, NaN,NaN,NaN, NaN, NaN
20050105,000925,89144,32.910073,-117.392833,1.1,15.836,33.134,41.651,1027.90,0.0,1.274,15.464,15.440, NaN,24.350,   NaN,12.09,1012.72,72.28,12.18,338.8,337.1,3.4,3.5,293.5,291.7,3.4,3.4,NaN, NaN,16.6,229.4,354.2,1104883767,1104883767,1,0.2,000566,000567,320.0,32.909955,-117.392750,0.29,NaN,NaN,15.840, NaN,NaN,NaN, NaN, NaN
20050105,000956,89174,32.910090,-117.392838,0.9,15.838,33.135,41.653,1016.09,0.0,1.255,15.469,15.443, NaN,24.349,   NaN,12.03,1012.74,72.14,12.19,337.0,337.0,3.8,3.7,297.4,297.2,3.7,3.7,NaN, NaN,17.2,13.5,213.8,1104883798,1104883797,1,0.1,000597,000597,316.3,32.909976,-117.392747,0.35,NaN,NaN,15.842, NaN,NaN,NaN, NaN, NaN
20050105,001027,89205,32.910115,-117.392820,0.9,15.839,33.133,41.652,1015.74,0.0,1.274,15.468,15.442, NaN,24.348,   NaN,12.00,1012.76,72.10,12.13,335.2,336.8,3.5,3.5,289.0,290.3,3.4,3.4,NaN, NaN,16.8,217.7,208.0,1104883828,1104883828,1,0.7,000628,000628,309.7,32.910016,-117.392718,0.34,NaN,NaN,15.843, NaN,NaN,NaN, NaN, NaN
20050105,001056,89235,32.910133,-117.392790,1.0,15.840,33.133,41.653,1010.51,0.0,1.312,15.470,15.445, NaN,24.348,   NaN,11.98,1012.75,71.83,12.07,341.8,340.1,2.8,2.9,287.8,286.2,2.8,2.9,NaN, NaN,17.6,35.3,43.3,1104883858,1104883858,1,0.5,000657,000658,303.4,32.910045,-117.392675,0.42,NaN,NaN,15.844, NaN,NaN,NaN, NaN, NaN
20050105,001127,89265,32.910123,-117.392775,1.0,15.841,33.133,41.654,998.84,0.0,1.255,15.469,15.443, NaN,24.348,   NaN,12.07,1012.75,71.97,12.09,346.9,344.2,2.6,2.6,288.7,286.5,2.7,2.7,NaN, NaN,16.9,206.8,194.6,1104883888,1104883888,1,0.7,000688,000688,299.5,32.910036,-117.392643,0.32,NaN,NaN,15.845, NaN,NaN,NaN, NaN, NaN
20050105,001157,89296,32.910120,-117.392757,1.1,15.842,33.133,41.655,993.46,0.0,1.293,15.468,15.442, NaN,24.347,   NaN,12.10,1012.75,71.97,12.15,344.1,341.0,2.8,2.8,285.3,282.9,2.8,2.8,NaN, NaN,16.2,2.5,172.6,1104883918,1104883918,1,0.2,000717,000718,301.7,32.910026,-117.392623,0.25,NaN,NaN,15.846, NaN,NaN,NaN, NaN, NaN
20050105,001227,89326,32.910101,-117.392743,1.0,15.845,33.132,41.657,985.47,0.0,1.293,15.470,15.444, NaN,24.346,   NaN,12.10,1012.74,71.93,12.14,334.5,332.6,2.7,2.9,278.0,275.7,2.7,2.9,NaN, NaN,17.6,202.0,195.5,1104883948,1104883948,1,0.5,000747,000748,303.8,32.910008,-117.392622,0.33,NaN,NaN,15.849, NaN,NaN,NaN, NaN, NaN
20050105,001257,89355,32.910098,-117.392723,1.0,15.845,33.133,41.658,970.74,0.0,1.312,15.470,15.445, NaN,24.347,   NaN,12.02,1012.75,71.77,12.09,330.0,330.9,2.6,2.8,276.2,276.1,2.6,2.8,NaN, NaN,16.4,37.9,234.6,1104883978,1104883978,1,0.0,000778,000778,304.7,32.910000,-117.392598,0.31,NaN,NaN,15.849, NaN,NaN,NaN, NaN, NaN
20050105,001326,89385,32.910085,-117.392700,1.0,15.847,33.133,41.659,962.58,0.0,1.312,15.470,15.444, NaN,24.346,   NaN,11.98,1012.75,71.78,12.04,327.5,329.0,2.5,2.8,272.3,273.3,2.6,2.8,NaN, NaN,16.1,75.2,206.1,1104884008,1104884007,1,0.5,000807,000807,304.0,32.909990,-117.392572,0.33,NaN,NaN,15.851, NaN,NaN,NaN, NaN, NaN
20050105,001357,89415,32.910090,-117.392662,0.9,15.844,33.136,41.660,950.13,0.0,1.293,15.470,15.445, NaN,24.349,   NaN,11.98,1012.75,71.79,12.06,329.9,328.7,2.4,2.6,272.9,271.6,2.6,2.8,NaN, NaN,16.8,56.8,59.4,1104884038,1104884038,1,1.0,000837,000838,305.0,32.909993,-117.392537,0.30,NaN,NaN,15.848, NaN,NaN,NaN, NaN, NaN
20050105,001427,89446,32.910073,-117.392640,1.0,15.845,33.137,41.662,941.01,0.0,1.293,15.471,15.446, NaN,24.350,   NaN,12.02,1012.77,71.82,12.07,336.0,335.3,2.2,2.3,276.7,275.3,2.3,2.5,NaN, NaN,17.1,31.6,84.9,1104884068,1104884068,1,0.5,000867,000868,304.0,32.909981,-117.392512,0.30,NaN,NaN,15.849, NaN,NaN,NaN, NaN, NaN
20050105,001457,89476,32.910073,-117.392607,1.0,15.846,33.137,41.663,938.33,0.0,1.293,15.470,15.445, NaN,24.350,   NaN,12.05,1012.77,71.93,12.11,342.4,343.0,2.5,2.7,283.0,283.3,2.6,2.8,NaN, NaN,16.3,18.5,51.0,1104884098,1104884098,1,0.5,000898,000898,302.3,32.909983,-117.392480,0.29,NaN,NaN,15.850, NaN,NaN,NaN, NaN, NaN
20050105,001526,89504,32.910065,-117.392563,0.9,15.845,33.140,41.665,930.23,0.0,1.331,15.470,15.445, NaN,24.352,   NaN,12.03,1012.80,71.79,12.09,339.5,343.2,2.7,2.9,280.8,284.3,2.8,3.0,NaN, NaN,16.8,149.4,53.8,1104884128,1104884127,1,0.4,000927,000927,303.2,32.909975,-117.392442,0.30,NaN,NaN,15.849, NaN,NaN,NaN, NaN, NaN
20050105,001557,89535,32.910053,-117.392543,0.9,15.845,33.139,41.664,913.93,0.0,1.312,15.472,15.447, NaN,24.352,   NaN,12.03,1012.80,71.81,12.06,335.5,336.1,2.3,2.5,277.2,277.4,2.4,2.6,NaN, NaN,15.8,229.5,239.2,1104884158,1104884158,1,0.6,000958,000958,308.3,32.909958,-117.392428,0.43,NaN,NaN,15.849, NaN,NaN,NaN, NaN, NaN
20050105,001627,89565,32.910073,-117.392542,0.8,15.845,33.140,41.665,900.16,0.0,1.350,15.472,15.446, NaN,24.352,   NaN,12.10,1012.79,72.20,12.12,333.5,331.0,2.1,2.6,282.2,279.0,2.2,2.7,NaN, NaN,17.0,222.0,314.1,1104884188,1104884188,1,0.4,000987,000988,313.2,32.909970,-117.392438,0.33,NaN,NaN,15.849, NaN,NaN,NaN, NaN, NaN
20050105,001657,89595,32.910103,-117.392550,1.1,15.846,33.139,41.665,890.53,0.0,1.312,15.472,15.447, NaN,24.351,   NaN,12.12,1012.79,72.38,12.20,333.8,332.0,2.5,2.9,288.8,286.6,2.4,2.8,NaN, NaN,17.1,211.9,343.6,1104884218,1104884218,1,0.0,001017,001018,314.5,32.909996,-117.392448,0.34,NaN,NaN,15.850, NaN,NaN,NaN, NaN, NaN
20050105,001727,89626,32.910140,-117.392568,0.9,15.847,33.139,41.666,879.17,0.0,1.293,15.470,15.445, NaN,24.351,   NaN,12.10,1012.82,72.61,12.21,340.4,339.0,3.0,3.1,294.1,292.8,2.9,3.0,NaN, NaN,17.1,338.5,12.3,1104884248,1104884248,1,0.3,001048,001048,309.2,32.910040,-117.392458,0.33,NaN,NaN,15.851, NaN,NaN,NaN, NaN, NaN
20050105,001756,89654,32.910158,-117.392593,1.0,15.846,33.141,41.667,879.78,0.0,1.350,15.468,15.443, NaN,24.353,   NaN,12.09,1012.83,73.26,12.28,2.8,1.4,3.2,3.3,310.0,308.7,3.0,3.1,NaN, NaN,15.6,213.5,319.7,1104884278,1104884278,1,0.4,001077,001078,300.3,32.910076,-117.392465,0.25,NaN,NaN,15.850, NaN,NaN,NaN, NaN, NaN
20050105,001827,89685,32.910170,-117.392642,1.0,15.845,33.141,41.667,859.97,0.0,1.293,15.473,15.446, NaN,24.353,   NaN,12.07,1012.82,73.90,12.32,20.8,23.4,3.1,3.3,321.5,324.0,3.0,3.1,NaN, NaN,14.6,229.8,350.4,1104884308,1104884308,1,0.4,001108,001108,294.3,32.910103,-117.392495,0.22,NaN,NaN,15.849, NaN,NaN,NaN, NaN, NaN
20050105,001857,89715,32.910188,-117.392722,1.1,15.847,33.142,41.669,843.98,0.0,1.293,15.473,15.447, NaN,24.353,   NaN,11.95,1012.80,73.94,12.25,23.0,27.4,3.1,3.3,323.1,327.3,3.0,3.2,NaN, NaN,15.9,288.1,335.3,1104884339,1104884338,1,0.8,001138,001138,297.6,32.910116,-117.392582,0.11,NaN,NaN,15.851, NaN,NaN,NaN, NaN, NaN
20050105,001926,89745,32.910203,-117.392817,1.0,15.847,33.142,41.670,819.15,0.0,1.312,15.473,15.448, NaN,24.353,   NaN,11.85,1012.82,74.02,12.14,21.2,24.0,3.0,3.2,323.3,326.2,2.7,3.0,NaN, NaN,15.6,26.5,14.7,1104884368,1104884368,1,1.3,001167,001168,304.2,32.910126,-117.392687,0.16,NaN,NaN,15.851, NaN,NaN,NaN, NaN, NaN
20050105,001957,89775,32.910253,-117.392940,0.9,15.849,33.143,41.673,815.72,0.0,1.331,15.474,15.448, NaN,24.354,   NaN,11.84,1012.84,74.25,12.07,14.2,15.6,2.5,2.8,322.2,323.8,2.2,2.5,NaN, NaN,16.1,274.7,311.7,1104884398,1104884398,1,0.8,001198,001198,309.2,32.910160,-117.392822,0.17,NaN,NaN,15.853, NaN,NaN,NaN, NaN, NaN
20050105,002027,89806,32.910298,-117.393033,1.1,15.849,33.142,41.672,811.86,0.0,1.331,15.475,15.448, NaN,24.353,   NaN,11.87,1012.81,74.58,12.06,8.7,9.6,2.2,2.6,323.2,323.5,1.9,2.3,NaN, NaN,15.0,288.4,289.7,1104884429,1104884429,1,0.8,001228,001229,308.7,32.910201,-117.392913,0.23,NaN,NaN,15.853, NaN,NaN,NaN, NaN, NaN
20050105,002056,89834,32.910343,-117.393103,1.0,15.851,33.142,41.674,813.72,0.0,1.312,15.476,15.448, NaN,24.353,   NaN,11.88,1012.81,74.69,12.07,4.8,6.8,2.1,2.5,316.3,317.9,1.8,2.2,NaN, NaN,14.8,215.1,241.9,1104884458,1104884458,1,1.0,001258,001258,307.3,32.910240,-117.392977,0.22,NaN,NaN,15.855, NaN,NaN,NaN, NaN, NaN
20050105,002127,89865,32.910381,-117.393138,0.9,15.852,33.142,41.674,789.21,0.0,1.312,15.476,15.449, NaN,24.352,   NaN,11.90,1012.82,74.90,12.06,2.2,0.8,1.9,2.2,308.3,306.3,1.6,1.9,NaN, NaN,15.6,269.4,349.8,1104884488,1104884488,1,0.6,001288,001288,303.0,32.910280,-117.393007,0.34,NaN,NaN,15.856, NaN,NaN,NaN, NaN, NaN
20050105,002157,89895,32.910383,-117.393178,1.0,15.853,33.142,41.676,781.02,0.0,1.312,15.475,15.448, NaN,24.352,   NaN,11.97,1012.82,75.20,12.11,359.2,358.5,1.9,2.2,299.2,298.5,1.7,2.0,NaN, NaN,13.3,202.7,31.2,1104884519,1104884519,1,0.3,001318,001319,297.7,32.910308,-117.393035,0.23,NaN,NaN,15.857, NaN,NaN,NaN, NaN, NaN
20050105,002227,89925,32.910391,-117.393190,1.1,15.855,33.141,41.677,762.05,0.0,1.406,15.476,15.448, NaN,24.351,   NaN,11.98,1012.86,75.21,12.13,6.0,10.2,2.0,2.3,305.3,309.6,1.8,2.2,NaN, NaN,14.6,250.7,258.4,1104884549,1104884549,1,0.5,001348,001349,293.3,32.910341,-117.393037,0.24,NaN,NaN,15.859, NaN,NaN,NaN, NaN, NaN
20050105,002257,89956,32.910388,-117.393220,1.0,15.856,33.142,41.678,730.58,0.0,1.312,15.476,15.448, NaN,24.351,   NaN,11.98,1012.82,75.37,12.13,17.0,19.6,2.2,2.4,317.4,319.6,2.1,2.4,NaN, NaN,16.5,223.5,222.8,1104884578,1104884578,1,0.9,001378,001378,296.5,32.910328,-117.393075,0.22,NaN,NaN,15.860, NaN,NaN,NaN, NaN, NaN
20050105,002327,89986,32.910398,-117.393268,0.8,15.857,33.141,41.678,681.02,0.0,1.312,15.475,15.448, NaN,24.350,   NaN,12.03,1012.83,75.89,12.20,19.8,17.7,2.9,2.9,319.0,316.6,2.8,2.9,NaN, NaN,17.1,237.6,220.5,1104884609,1104884608,1,1.0,001408,001408,302.7,32.910316,-117.393140,0.22,NaN,NaN,15.861, NaN,NaN,NaN, NaN, NaN
20050105,002358,90016,32.910410,-117.393330,1.0,15.857,33.142,41.680,715.04,0.0,1.293,15.474,15.448, NaN,24.351,   NaN,11.96,1012.85,75.52,12.17,15.4,14.5,3.1,3.4,321.8,319.9,3.1,3.4,NaN, NaN,15.2,224.0,293.1,1104884639,1104884639,1,0.5,001439,001439,308.0,32.910318,-117.393207,-0.13,NaN,NaN,15.861, NaN,NaN,NaN, NaN, NaN
20050105,002427,90045,32.910421,-117.393378,0.9,15.858,33.144,41.682,686.80,0.0,1.293,15.475,15.448, NaN,24.352,   NaN,11.86,1012.89,75.44,12.03,10.6,12.7,3.0,3.5,322.7,324.1,3.0,3.4,NaN, NaN,14.8,211.3,236.6,1104884669,1104884669,1,0.8,001468,001469,313.0,32.910318,-117.393263,-0.02,NaN,NaN,15.862, NaN,NaN,NaN, NaN, NaN
20050105,002458,90077,32.910455,-117.393438,1.0,15.859,33.145,41.684,666.41,0.0,1.274,15.476,15.450, NaN,24.353,   NaN,11.79,1012.86,75.42,11.96,5.5,9.2,2.8,3.0,320.5,324.0,2.6,2.8,NaN, NaN,14.7,239.8,248.7,1104884699,1104884699,1,1.2,001499,001499,316.7,32.910348,-117.393337,0.03,NaN,NaN,15.863, NaN,NaN,NaN, NaN, NaN
20050105,002527,90105,32.910490,-117.393473,0.9,15.858,33.146,41.685,674.01,0.0,1.312,15.477,15.451, NaN,24.354,   NaN,11.79,1012.88,75.60,11.96,2.0,3.2,2.4,2.7,317.0,318.2,2.2,2.6,NaN, NaN,15.4,30.6,26.0,1104884729,1104884728,1,0.8,001528,001528,312.7,32.910390,-117.393363,0.18,NaN,NaN,15.862, NaN,NaN,NaN, NaN, NaN
20050105,002557,90136,32.910516,-117.393500,1.1,15.859,33.148,41.687,658.76,0.0,1.312,15.475,15.449, NaN,24.355,   NaN,11.78,1012.86,75.51,11.93,3.4,7.8,2.4,2.7,314.1,319.2,2.3,2.6,NaN, NaN,14.4,17.9,9.2,1104884759,1104884759,1,0.5,001559,001559,303.0,32.910425,-117.393370,0.11,NaN,NaN,15.863, NaN,NaN,NaN, NaN, NaN
20050105,002627,90166,32.910518,-117.393517,1.0,15.862,33.144,41.686,641.21,0.0,1.293,15.475,15.448, NaN,24.351,   NaN,11.75,1012.87,75.44,11.89,15.3,21.5,2.6,2.6,316.3,323.0,2.4,2.5,NaN, NaN,15.7,0.8,26.9,1104884789,1104884789,1,1.3,001588,001589,294.2,32.910456,-117.393368,0.03,NaN,NaN,15.866, NaN,NaN,NaN, NaN, NaN
20050105,002657,90195,32.910521,-117.393522,0.9,15.861,33.146,41.688,607.14,0.0,1.312,15.476,15.449, NaN,24.353,   NaN,11.70,1012.88,75.37,11.87,24.7,30.7,2.2,2.2,317.5,324.4,2.0,2.1,NaN, NaN,16.9,350.1,4.0,1104884819,1104884819,1,0.5,001618,001619,291.4,32.910456,-117.393378,-0.02,NaN,NaN,15.865, NaN,NaN,NaN, NaN, NaN
20050105,002728,90227,32.910505,-117.393520,0.8,15.864,33.144,41.688,625.65,0.0,1.312,15.474,15.448, NaN,24.351,   NaN,11.70,1012.87,75.38,11.87,35.5,37.0,1.4,1.4,328.4,330.6,1.3,1.4,NaN, NaN,17.7,190.6,181.5,1104884849,1104884849,1,0.2,001648,001649,290.3,32.910440,-117.393375,0.06,NaN,NaN,15.868, NaN,NaN,NaN, NaN, NaN
20050105,002758,90257,32.910488,-117.393513,1.1,15.863,33.147,41.690,555.73,0.0,1.331,15.476,15.449, NaN,24.353,   NaN,11.72,1012.90,75.37,11.89,38.3,41.9,1.0,1.1,329.6,331.6,1.0,1.2,NaN, NaN,18.0,171.7,198.5,1104884879,1104884879,1,0.7,001679,001679,291.0,32.910421,-117.393373,-0.22,NaN,NaN,15.867, NaN,NaN,NaN, NaN, NaN
20050105,002827,90286,32.910481,-117.393512,1.0,15.865,33.146,41.691,571.09,0.0,1.331,15.476,15.448, NaN,24.352,   NaN,11.76,1012.85,75.59,11.93,27.1,31.1,1.3,1.6,321.3,321.8,1.3,1.7,NaN, NaN,17.6,193.5,209.9,1104884909,1104884909,1,0.0,001709,001709,295.7,32.910400,-117.393380,0.00,NaN,NaN,15.869, NaN,NaN,NaN, NaN, NaN
20050105,002857,90316,32.910458,-117.393532,1.0,15.866,33.146,41.692,580.92,0.0,1.312,15.475,15.448, NaN,24.352,   NaN,11.82,1012.85,75.71,12.00,15.2,12.4,1.6,2.1,317.4,313.0,1.6,2.2,NaN, NaN,18.6,217.3,244.1,1104884939,1104884938,1,0.5,001738,001738,306.7,32.910368,-117.393422,0.01,NaN,NaN,15.870, NaN,NaN,NaN, NaN, NaN
20050105,002928,90346,32.910468,-117.393563,1.0,15.865,33.147,41.692,566.30,0.0,1.312,15.479,15.451, NaN,24.353,   NaN,11.84,1012.89,75.63,11.98,3.4,357.4,1.7,1.9,312.9,307.3,1.7,1.9,NaN, NaN,19.6,42.7,239.2,1104884970,1104884970,1,0.6,001769,001770,317.7,32.910356,-117.393477,0.08,NaN,NaN,15.869, NaN,NaN,NaN, NaN, NaN
20050105,002957,90375,32.910496,-117.393595,0.8,15.867,33.146,41.693,575.18,0.0,1.331,15.480,15.451, NaN,24.352,   NaN,11.88,1012.88,75.90,12.01,12.7,8.5,2.1,2.3,326.1,322.8,2.0,2.2,NaN, NaN,19.8,42.3,257.7,1104884999,1104884999,1,0.7,001798,001799,319.8,32.910385,-117.393512,0.12,NaN,NaN,15.871, NaN,NaN,NaN, NaN, NaN
20050105,003028,90407,32.910520,-117.393623,0.9,15.866,33.148,41.695,552.88,0.0,1.312,15.479,15.452, NaN,24.354,   NaN,11.84,1012.90,75.89,12.01,14.7,16.8,2.4,3.0,331.1,333.3,2.3,2.8,NaN, NaN,20.1,255.8,31.8,1104885030,1104885030,1,0.3,001830,001830,314.5,32.910420,-117.393525,0.03,NaN,NaN,15.870, NaN,NaN,NaN, NaN, NaN
20050105,003058,90437,32.910528,-117.393647,1.0,15.864,33.150,41.694,484.29,0.0,1.312,15.478,15.451, NaN,24.356,   NaN,11.78,1012.87,75.86,11.95,12.9,13.6,2.3,2.8,328.1,328.3,2.2,2.8,NaN, NaN,19.9,39.2,231.2,1104885059,1104885059,1,0.0,001859,001859,304.2,32.910440,-117.393528,0.26,NaN,NaN,15.868, NaN,NaN,NaN, NaN, NaN
20050105,003128,90466,32.910541,-117.393702,1.0,15.864,33.150,41.694,499.52,0.0,1.331,15.478,15.449, NaN,24.356,   NaN,11.75,1012.88,76.19,11.95,28.4,29.5,2.8,2.9,335.3,335.9,2.7,2.9,NaN, NaN,19.6,268.9,285.5,1104885090,1104885089,1,0.6,001889,001889,298.9,32.910470,-117.393578,0.25,NaN,NaN,15.868, NaN,NaN,NaN, NaN, NaN
20050105,003158,90496,32.910581,-117.393803,1.0,15.861,33.154,41.696,491.82,0.0,1.312,15.473,15.447, NaN,24.359,   NaN,11.66,1012.88,76.07,11.95,39.4,42.3,3.3,3.2,341.9,345.1,3.1,3.0,NaN, NaN,19.2,339.1,310.4,1104885120,1104885120,1,0.8,001919,001920,298.3,32.910508,-117.393683,0.11,NaN,NaN,15.865, NaN,NaN,NaN, NaN, NaN
20050105,003229,90527,32.910598,-117.393917,0.9,15.868,33.147,41.695,475.75,0.0,1.388,15.468,15.442, NaN,24.353,   NaN,11.54,1012.92,75.92,11.83,37.2,38.9,3.1,3.1,342.5,344.6,3.0,2.9,NaN, NaN,19.3,279.1,309.3,1104885150,1104885150,1,0.7,001949,001950,304.6,32.910516,-117.393802,0.22,NaN,NaN,15.872, NaN,NaN,NaN, NaN, NaN
20050105,003258,90557,32.910613,-117.394018,1.0,15.866,33.151,41.697,435.63,0.0,1.331,15.468,15.442, NaN,24.356,   NaN,11.49,1012.93,75.95,11.80,32.8,34.6,2.7,2.7,343.9,344.9,2.5,2.6,NaN, NaN,19.4,231.6,233.4,1104885180,1104885180,1,1.5,001980,001980,306.8,32.910526,-117.393908,0.19,NaN,NaN,15.870, NaN,NaN,NaN, NaN, NaN
20050105,003328,90587,32.910645,-117.394067,1.0,15.864,33.150,41.695,451.14,0.0,1.312,15.468,15.443, NaN,24.356,   NaN,11.50,1012.97,76.04,11.79,34.0,37.6,2.3,2.2,346.4,349.6,2.2,2.2,NaN, NaN,20.0,359.6,253.3,1104885209,1104885209,1,0.3,002009,002009,303.3,32.910556,-117.393958,0.18,NaN,NaN,15.868, NaN,NaN,NaN, NaN, NaN
20050105,003359,90618,32.910638,-117.394115,1.1,15.864,33.153,41.697,438.34,0.0,1.293,15.465,15.441, NaN,24.358,   NaN,11.52,1012.96,76.14,11.81,32.4,34.8,2.0,2.1,338.9,342.1,1.9,2.0,NaN, NaN,19.3,212.3,352.7,1104885240,1104885240,1,0.5,002039,002040,297.7,32.910570,-117.393985,0.20,NaN,NaN,15.868, NaN,NaN,NaN, NaN, NaN
20050105,003429,90648,32.910631,-117.394112,1.0,15.864,33.152,41.697,400.69,0.0,1.350,15.468,15.442, NaN,24.357,   NaN,11.54,1012.99,76.12,11.84,23.6,24.8,2.0,2.3,324.1,325.5,2.0,2.3,NaN, NaN,19.3,204.0,28.6,1104885270,1104885270,1,0.0,002070,002070,295.5,32.910565,-117.393980,0.15,NaN,NaN,15.868, NaN,NaN,NaN, NaN, NaN
20050105,003458,90676,32.910608,-117.394097,1.1,15.864,33.153,41.698,409.03,0.0,1.312,15.469,15.443, NaN,24.358,   NaN,11.55,1012.99,76.08,11.81,24.1,23.9,1.6,1.8,324.5,324.5,1.6,1.9,NaN, NaN,19.9,226.5,185.1,1104885300,1104885300,1,0.0,002099,002100,297.2,32.910536,-117.393972,0.24,NaN,NaN,15.868, NaN,NaN,NaN, NaN, NaN
20050105,003529,90707,32.910583,-117.394043,1.0,15.866,33.153,41.699,388.39,0.0,1.312,15.470,15.443, NaN,24.357,   NaN,11.60,1013.01,76.11,11.82,20.0,19.1,1.4,1.7,321.8,321.3,1.5,1.8,NaN, NaN,20.6,49.3,62.6,1104885330,1104885330,1,0.6,002130,002130,299.8,32.910511,-117.393930,0.09,NaN,NaN,15.870, NaN,NaN,NaN, NaN, NaN
20050105,003559,90737,32.910543,-117.393997,1.0,15.868,33.150,41.698,352.83,0.0,1.274,15.471,15.445, NaN,24.355,   NaN,11.66,1013.04,76.09,11.84,1.6,2.7,1.7,2.0,302.7,304.2,1.9,2.2,NaN, NaN,20.5,34.3,120.5,1104885360,1104885360,1,0.4,002160,002160,302.7,32.910455,-117.393887,0.22,NaN,NaN,15.872, NaN,NaN,NaN, NaN, NaN
20050105,003629,90767,32.910493,-117.393937,1.0,15.867,33.152,41.699,155.77,0.0,1.331,15.472,15.446, NaN,24.356,   NaN,11.67,1013.04,76.09,11.82,351.9,353.0,1.9,1.9,297.6,298.7,2.1,2.1,NaN, NaN,21.1,172.0,115.2,1104885390,1104885390,1,0.5,002189,002190,307.0,32.910405,-117.393828,0.32,NaN,NaN,15.871, NaN,NaN,NaN, NaN, NaN
20050105,003659,90798,32.910478,-117.393895,1.0,15.866,33.154,41.700,185.60,0.0,1.331,15.475,15.448, NaN,24.358,   NaN,11.61,1013.05,75.94,11.78,350.4,352.6,2.3,2.3,301.3,303.6,2.5,2.5,NaN, NaN,19.5,191.3,26.8,1104885421,1104885420,1,0.0,002220,002220,314.0,32.910373,-117.393800,0.27,NaN,NaN,15.870, NaN,NaN,NaN, NaN, NaN